Location: Chacón
(10.5789°N, 66.9317°W)
Time: 05:32:37
(UTC+00:00)

Sakura Rocket - Pass Details

Date: 16 August 2024
Orbit: 475 x 1710 km, 28.7° (Epoch: 16 September)

Event Time Altitude Azimuth Distance (km) Brightness Sun altitude
Exits shadow 08:46:59 32° 292° (WNW) 1,677 4.8 -22.3°
Maximum altitude 08:50:29 80° 209° (SSW) 1,164 4.2 -21.5°
Drops below altitude 10° 08:59:27 10° 123° (ESE) 3,550 7.4 -19.4°
Sets 09:02:56 0° 122° (ESE) 4,684 8.1 -18.6°
